ROMMA est une association bénévole à but non lucratif. Votre soutien est indispensable : ADHERER à ROMMA ou FAIRE un DON

La Javie - (04, Alpes de Haute Provence)

Vallée de la Bléone (820 m)   Longitude: 06° 21' E   Latitude: 44° 10' N Station partenaire n°129
 

Détail journalier du     <<     >>

Température Precipitation Humidité Pression Vent Dir Rafale Dir. rafale Ensol.
Heure (°C) (mm) (%) (hPa) (km/h) (km/h) (min)
01:00 16.7084101500---0
02:00 15.9087101500---0
03:00 15.6087101500---0
04:00 19.107310132---19---0
05:00 17.608110131---11---0
06:00 16.1087101305---0
07:00 15.2090101300---0
08:00 15.6089101300---0
09:00 17.2082101300---0
10:00 23.6067101200---0
11:00 25.6057101202---0
12:00 26.805110111---11---0
13:00 26.805710116---19---0
14:00 27.705110113---16---0
15:00 28.205110105---16---0
16:00 28.405110095---21---0
17:00 28.604010095---19---0
18:00 28.904110081---18---0
19:00 26.70411009011---0
20:00 24.70361010010---0
21:00 22.80411010010---0
22:00 20.904310091---10---0
23:00 20.304310102---21---0
minuit 19.504010104---19---0

Graphique du 06-07-2020

 

Serveur OMMA